Wetterdaten: Samstag, 07.07.2012
Datum Zeit Temperatur Luftfeuchte Regen Wind Richtung Richtung Taupunkt Windchill Windben
07.07.2012 00:00 14,2 C 94 % 0,0 l/m 0,0 km/h (0 Bft) N-NW 337 13,2 C 14,1 C 0,0 km/h (0 Bft)
07.07.2012 00:05 14,2 C 94 % 0,0 l/m 0,0 km/h (0 Bft) N 360 13,2 C 14,1 C 0,0 km/h (0 Bft)
07.07.2012 00:10 14,2 C 94 % 0,0 l/m 0,0 km/h (0 Bft) N 360 13,2 C 14,0 C 0,0 km/h (0 Bft)
07.07.2012 00:15 14,1 C 94 % 0,0 l/m 0,0 km/h (0 Bft) SO 135 13,1 C 14,0 C 0,0 km/h (0 Bft)
07.07.2012 00:20 14,1 C 94 % 0,0 l/m 0,0 km/h (0 Bft) S-SO 157 13,1 C 14,0 C 0,0 km/h (0 Bft)
07.07.2012 00:25 14,1 C 94 % 0,0 l/m 0,0 km/h (0 Bft) W-NW 292 13,1 C 13,9 C 0,0 km/h (0 Bft)
07.07.2012 00:30 14,1 C 94 % 0,0 l/m 0,0 km/h (0 Bft) NW 315 13,1 C 13,9 C 0,0 km/h (0 Bft)
07.07.2012 00:35 14,1 C 94 % 0,0 l/m 0,0 km/h (0 Bft) NW 315 13,1 C 14,0 C 0,0 km/h (0 Bft)
07.07.2012 00:40 14,2 C 94 % 0,0 l/m 0,0 km/h (0 Bft) O 90 13,2 C 14,1 C 0,0 km/h (0 Bft)
07.07.2012 00:45 14,3 C 94 % 0,0 l/m 0,0 km/h (0 Bft) N 360 13,3 C 14,1 C 0,0 km/h (0 Bft)
07.07.2012 00:50 14,3 C 94 % 0,0 l/m 0,2 km/h (0 Bft) N-NO 22 13,3 C 14,2 C 2,4 km/h (1 Bft)
07.07.2012 00:55 14,3 C 94 % 0,0 l/m 0,3 km/h (0 Bft) NO 45 13,3 C 14,2 C 0,0 km/h (0 Bft)
07.07.2012 01:00 14,3 C 94 % 0,0 l/m 0,3 km/h (0 Bft) NO 45 13,3 C 14,2 C 3,4 km/h (1 Bft)
07.07.2012 01:05 14,3 C 94 % 0,0 l/m 0,2 km/h (0 Bft) S 180 13,3 C 14,2 C 0,0 km/h (0 Bft)
07.07.2012 01:10 14,4 C 94 % 0,0 l/m 0,2 km/h (0 Bft) S 180 13,4 C 14,3 C 0,0 km/h (0 Bft)
07.07.2012 01:15 14,4 C 94 % 0,0 l/m 0,0 km/h (0 Bft) NO 45 13,4 C 14,3 C 0,0 km/h (0 Bft)
07.07.2012 01:20 14,4 C 94 % 0,0 l/m 0,0 km/h (0 Bft) S 180 13,4 C 14,2 C 0,0 km/h (0 Bft)
07.07.2012 01:25 14,3 C 94 % 0,7 l/m 0,0 km/h (0 Bft) SW 225 13,3 C 14,2 C 0,0 km/h (0 Bft)
07.07.2012 01:30 14,3 C 94 % 0,0 l/m 0,0 km/h (0 Bft) N-NO 22 13,3 C 14,2 C 0,0 km/h (0 Bft)
07.07.2012 01:35 14,3 C 94 % 0,0 l/m 0,0 km/h (0 Bft) N-NO 22 13,3 C 14,2 C 0,0 km/h (0 Bft)
07.07.2012 01:40 14,3 C 94 % 0,0 l/m 0,0 km/h (0 Bft) N 360 13,3 C 14,2 C 0,0 km/h (0 Bft)
07.07.2012 01:45 14,3 C 94 % 0,0 l/m 0,0 km/h (0 Bft) N-NO 22 13,3 C 14,2 C 0,0 km/h (0 Bft)
07.07.2012 01:50 14,3 C 94 % 0,0 l/m 0,2 km/h (0 Bft) O-SO 112 13,3 C 14,2 C 1,8 km/h (1 Bft)
07.07.2012 01:55 14,4 C 94 % 0,0 l/m 0,8 km/h (0 Bft) O-SO 112 13,4 C 14,2 C 0,0 km/h (0 Bft)
07.07.2012 02:00 14,3 C 94 % 0,0 l/m 1,0 km/h (0 Bft) SO 135 13,3 C 14,2 C 0,0 km/h (0 Bft)
07.07.2012 02:05 14,3 C 94 % 0,0 l/m 0,2 km/h (0 Bft) N-NO 22 13,3 C 14,2 C 0,0 km/h (0 Bft)
07.07.2012 02:10 14,3 C 94 % 0,0 l/m 0,0 km/h (0 Bft) S-SW 202 13,3 C 14,2 C 0,0 km/h (0 Bft)
07.07.2012 02:15 14,3 C 94 % 0,0 l/m 0,0 km/h (0 Bft) N-NW 337 13,3 C 14,2 C 0,0 km/h (0 Bft)
07.07.2012 02:20 14,3 C 94 % 0,0 l/m 0,0 km/h (0 Bft) NO 45 13,3 C 14,2 C 0,0 km/h (0 Bft)
07.07.2012 02:25 14,3 C 94 % 0,0 l/m 0,5 km/h (0 Bft) S-SO 157 13,3 C 14,2 C 1,9 km/h (1 Bft)
07.07.2012 02:30 14,3 C 94 % 0,0 l/m 0,6 km/h (0 Bft) SO 135 13,3 C 14,2 C 1,9 km/h (1 Bft)
07.07.2012 02:35 14,3 C 94 % 0,0 l/m 0,8 km/h (0 Bft) NO 45 13,3 C 14,2 C 2,9 km/h (1 Bft)
07.07.2012 02:40 14,3 C 94 % 0,0 l/m 1,0 km/h (0 Bft) SO 135 13,3 C 14,2 C 4,2 km/h (1 Bft)
07.07.2012 02:45 14,3 C 94 % 0,0 l/m 1,3 km/h (1 Bft) SO 135 13,3 C 14,2 C 4,8 km/h (1 Bft)
07.07.2012 02:50 14,3 C 94 % 0,0 l/m 2,1 km/h (1 Bft) O 90 13,3 C 14,2 C 7,4 km/h (2 Bft)
07.07.2012 02:55 14,2 C 94 % 0,0 l/m 1,9 km/h (1 Bft) NO 45 13,2 C 14,2 C 1,9 km/h (1 Bft)
07.07.2012 03:00 14,2 C 94 % 0,0 l/m 0,8 km/h (0 Bft) N 360 13,2 C 14,1 C 0,0 km/h (0 Bft)
07.07.2012 03:05 14,2 C 94 % 0,0 l/m 0,6 km/h (0 Bft) N-NO 22 13,2 C 14,1 C 0,0 km/h (0 Bft)
07.07.2012 03:10 14,2 C 94 % 0,0 l/m 0,2 km/h (0 Bft) NO 45 13,2 C 14,1 C 2,1 km/h (1 Bft)
07.07.2012 03:15 14,2 C 94 % 0,0 l/m 0,2 km/h (0 Bft) NO 45 13,2 C 14,1 C 0,0 km/h (0 Bft)
07.07.2012 03:20 14,2 C 94 % 0,7 l/m 0,2 km/h (0 Bft) SO 135 13,2 C 14,1 C 0,0 km/h (0 Bft)
07.07.2012 03:25 14,2 C 94 % 0,0 l/m 0,2 km/h (0 Bft) O 90 13,2 C 14,1 C 3,5 km/h (1 Bft)
07.07.2012 03:30 14,2 C 94 % 0,0 l/m 1,3 km/h (1 Bft) N-NO 22 13,2 C 14,1 C 0,0 km/h (0 Bft)
07.07.2012 03:35 14,2 C 94 % 0,0 l/m 1,4 km/h (1 Bft) N-NO 22 13,2 C 14,1 C 0,0 km/h (0 Bft)
07.07.2012 03:40 14,2 C 94 % 0,0 l/m 0,2 km/h (0 Bft) S-SW 202 13,2 C 14,1 C 0,0 km/h (0 Bft)
07.07.2012 03:45 14,1 C 94 % 0,0 l/m 0,0 km/h (0 Bft) NO 45 13,1 C 14,1 C 0,0 km/h (0 Bft)
07.07.2012 03:50 14,0 C 94 % 0,0 l/m 0,2 km/h (0 Bft) W-SW 247 13,0 C 14,0 C 2,3 km/h (1 Bft)
07.07.2012 03:55 14,0 C 94 % 0,0 l/m 0,2 km/h (0 Bft) N 360 13,0 C 14,0 C 0,0 km/h (0 Bft)
07.07.2012 04:00 14,0 C 94 % 0,0 l/m 0,2 km/h (0 Bft) O 90 13,0 C 13,9 C 0,0 km/h (0 Bft)
07.07.2012 04:05 14,0 C 94 % 0,0 l/m 0,5 km/h (0 Bft) SO 135 13,0 C 13,9 C 1,6 km/h (1 Bft)
07.07.2012 04:10 14,0 C 94 % 0,0 l/m 0,6 km/h (0 Bft) S 180 13,0 C 13,9 C 0,0 km/h (0 Bft)
07.07.2012 04:15 14,0 C 94 % 0,0 l/m 0,5 km/h (0 Bft) O-SO 112 13,0 C 13,9 C 1,6 km/h (1 Bft)
07.07.2012 04:20 14,1 C 94 % 0,0 l/m 1,0 km/h (0 Bft) O-SO 112 13,1 C 13,9 C 4,8 km/h (1 Bft)
07.07.2012 04:25 14,1 C 94 % 0,0 l/m 1,6 km/h (1 Bft) N-NW 337 13,1 C 13,9 C 1,6 km/h (1 Bft)
07.07.2012 04:30 14,0 C 94 % 0,0 l/m 1,0 km/h (0 Bft) N-NO 22 13,0 C 13,9 C 0,0 km/h (0 Bft)
07.07.2012 04:35 14,0 C 94 % 0,7 l/m 0,0 km/h (0 Bft) SO 135 13,0 C 13,9 C 2,1 km/h (1 Bft)
07.07.2012 04:40 14,1 C 94 % 0,0 l/m 0,8 km/h (0 Bft) W 270 13,1 C 14,0 C 0,0 km/h (0 Bft)
07.07.2012 04:45 14,0 C 94 % 0,0 l/m 0,8 km/h (0 Bft) NO 45 13,0 C 13,9 C 0,0 km/h (0 Bft)
07.07.2012 04:50 14,0 C 94 % 0,7 l/m 1,0 km/h (0 Bft) SO 135 13,0 C 13,9 C 3,1 km/h (1 Bft)
07.07.2012 04:55 14,0 C 94 % 0,0 l/m 1,4 km/h (1 Bft) O 90 13,0 C 13,9 C 0,0 km/h (0 Bft)
07.07.2012 05:00 14,0 C 94 % 0,0 l/m 1,0 km/h (0 Bft) N-NO 22 13,0 C 13,9 C 0,0 km/h (0 Bft)
07.07.2012 05:05 13,9 C 94 % 0,0 l/m 0,3 km/h (0 Bft) N-NO 22 12,9 C 13,9 C 1,8 km/h (1 Bft)
07.07.2012 05:10 13,9 C 94 % 0,0 l/m 0,3 km/h (0 Bft) O-SO 112 12,9 C 13,9 C 0,0 km/h (0 Bft)
07.07.2012 05:15 13,9 C 94 % 0,0 l/m 0,3 km/h (0 Bft) SO 135 12,9 C 13,9 C 0,0 km/h (0 Bft)
07.07.2012 05:20 13,9 C 94 % 0,0 l/m 0,2 km/h (0 Bft) N 360 12,9 C 13,9 C 0,0 km/h (0 Bft)
07.07.2012 05:25 13,9 C 94 % 0,0 l/m 0,3 km/h (0 Bft) N-NO 22 12,9 C 13,9 C 0,0 km/h (0 Bft)
07.07.2012 05:30 13,9 C 94 % 0,0 l/m 0,2 km/h (0 Bft) NO 45 12,9 C 13,9 C 0,0 km/h (0 Bft)
07.07.2012 05:35 13,9 C 94 % 0,0 l/m 0,0 km/h (0 Bft) N-NO 22 12,9 C 13,8 C 0,0 km/h (0 Bft)
07.07.2012 05:40 13,9 C 94 % 0,0 l/m 0,0 km/h (0 Bft) O-SO 112 12,9 C 13,8 C 0,0 km/h (0 Bft)
07.07.2012 05:45 14,0 C 94 % 0,0 l/m 0,2 km/h (0 Bft) NO 45 13,0 C 13,9 C 0,0 km/h (0 Bft)
07.07.2012 05:50 14,1 C 94 % 0,0 l/m 1,3 km/h (1 Bft) SO 135 13,1 C 13,9 C 3,1 km/h (1 Bft)
07.07.2012 05:55 14,1 C 94 % 0,0 l/m 1,9 km/h (1 Bft) SO 135 13,1 C 14,0 C 2,6 km/h (1 Bft)
07.07.2012 06:00 14,2 C 94 % 0,0 l/m 2,1 km/h (1 Bft) N-NO 22 13,2 C 14,1 C 3,4 km/h (1 Bft)
07.07.2012 06:05 14,1 C 94 % 0,0 l/m 1,6 km/h (1 Bft) O 90 13,1 C 14,1 C 5,0 km/h (1 Bft)
07.07.2012 06:10 14,0 C 94 % 0,0 l/m 1,8 km/h (1 Bft) W-SW 247 13,0 C 14,0 C 2,3 km/h (1 Bft)
07.07.2012 06:15 13,9 C 95 % 0,0 l/m 2,3 km/h (1 Bft) NO 45 13,1 C 13,9 C 3,5 km/h (1 Bft)
07.07.2012 06:20 13,8 C 94 % 0,0 l/m 3,4 km/h (1 Bft) O 90 12,9 C 13,8 C 10,5 km/h (2 Bft)
07.07.2012 06:25 13,7 C 94 % 0,0 l/m 4,3 km/h (1 Bft) NO 45 12,8 C 13,7 C 8,2 km/h (2 Bft)
07.07.2012 06:30 13,7 C 94 % 0,0 l/m 5,5 km/h (1 Bft) W-SW 247 12,8 C 13,6 C 10,6 km/h (2 Bft)
07.07.2012 06:35 13,6 C 94 % 0,0 l/m 6,0 km/h (2 Bft) O-SO 112 12,7 C 13,5 C 2,6 km/h (1 Bft)
07.07.2012 06:40 13,5 C 94 % 0,0 l/m 5,5 km/h (1 Bft) O-SO 112 12,6 C 13,4 C 11,3 km/h (2 Bft)
07.07.2012 06:45 13,4 C 94 % 0,0 l/m 5,0 km/h (1 Bft) SO 135 12,5 C 13,4 C 4,8 km/h (1 Bft)
07.07.2012 06:50 13,4 C 94 % 0,0 l/m 3,9 km/h (1 Bft) O 90 12,5 C 13,4 C 3,5 km/h (1 Bft)
07.07.2012 06:55 13,5 C 94 % 0,0 l/m 3,1 km/h (1 Bft) O-SO 112 12,6 C 13,4 C 3,4 km/h (1 Bft)
07.07.2012 07:00 13,4 C 94 % 0,0 l/m 2,6 km/h (1 Bft) S 180 12,5 C 13,4 C 0,0 km/h (0 Bft)
07.07.2012 07:05 13,5 C 94 % 0,0 l/m 1,8 km/h (1 Bft) SO 135 12,6 C 13,4 C 0,0 km/h (0 Bft)
07.07.2012 07:10 13,6 C 94 % 0,0 l/m 0,3 km/h (0 Bft) N-NO 22 12,7 C 13,5 C 0,0 km/h (0 Bft)
07.07.2012 07:15 13,6 C 94 % 0,0 l/m 0,3 km/h (0 Bft) N 360 12,7 C 13,6 C 0,0 km/h (0 Bft)
07.07.2012 07:20 13,5 C 94 % 0,0 l/m 0,5 km/h (0 Bft) S 180 12,6 C 13,6 C 1,6 km/h (1 Bft)
07.07.2012 07:25 13,7 C 94 % 0,0 l/m 0,6 km/h (0 Bft) SO 135 12,8 C 13,8 C 0,0 km/h (0 Bft)
07.07.2012 07:30 13,7 C 94 % 0,0 l/m 0,6 km/h (0 Bft) NO 45 12,8 C 14,0 C 0,0 km/h (0 Bft)
07.07.2012 07:35 13,7 C 94 % 0,0 l/m 0,2 km/h (0 Bft) W-NW 292 12,8 C 14,1 C 0,0 km/h (0 Bft)
07.07.2012 07:40 13,9 C 94 % 0,0 l/m 0,0 km/h (0 Bft) NO 45 12,9 C 14,4 C 0,0 km/h (0 Bft)
07.07.2012 07:45 14,1 C 94 % 0,0 l/m 0,0 km/h (0 Bft) O-SO 112 13,1 C 14,7 C 2,3 km/h (1 Bft)
07.07.2012 07:50 14,2 C 94 % 0,0 l/m 0,2 km/h (0 Bft) N 360 13,2 C 15,0 C 0,0 km/h (0 Bft)
07.07.2012 07:55 14,2 C 94 % 0,0 l/m 0,2 km/h (0 Bft) SO 135 13,2 C 15,1 C 0,0 km/h (0 Bft)
07.07.2012 08:00 14,2 C 94 % 0,0 l/m 0,3 km/h (0 Bft) O 90 13,2 C 15,2 C 0,0 km/h (0 Bft)
07.07.2012 08:05 14,3 C 94 % 0,0 l/m 0,3 km/h (0 Bft) O 90 13,3 C 15,2 C 0,0 km/h (0 Bft)
07.07.2012 08:10 14,5 C 94 % 0,0 l/m 0,0 km/h (0 Bft) N-NO 22 13,5 C 15,3 C 0,0 km/h (0 Bft)
07.07.2012 08:15 14,7 C 94 % 0,0 l/m 0,0 km/h (0 Bft) NW 315 13,7 C 15,6 C 0,0 km/h (0 Bft)
07.07.2012 08:20 14,5 C 94 % 0,0 l/m 0,5 km/h (0 Bft) SO 135 13,5 C 15,8 C 3,5 km/h (1 Bft)
07.07.2012 08:25 14,4 C 94 % 0,0 l/m 0,8 km/h (0 Bft) O-SO 112 13,4 C 15,7 C 2,9 km/h (1 Bft)
07.07.2012 08:30 14,6 C 94 % 0,0 l/m 1,1 km/h (1 Bft) S-SW 202 13,6 C 15,7 C 0,0 km/h (0 Bft)
07.07.2012 08:35 14,7 C 94 % 0,0 l/m 1,0 km/h (0 Bft) O-SO 112 13,7 C 15,8 C 0,0 km/h (0 Bft)
07.07.2012 08:40 14,9 C 94 % 0,0 l/m 0,8 km/h (0 Bft) O-NO 67 13,9 C 16,1 C 0,0 km/h (0 Bft)
07.07.2012 08:45 15,3 C 94 % 0,0 l/m 0,8 km/h (0 Bft) S-SO 157 14,3 C 16,5 C 1,9 km/h (1 Bft)
07.07.2012 08:50 15,6 C 94 % 0,0 l/m 1,6 km/h (1 Bft) SO 135 14,6 C 16,9 C 4,5 km/h (1 Bft)
07.07.2012 08:55 15,8 C 94 % 0,0 l/m 2,1 km/h (1 Bft) S 180 14,8 C 17,0 C 0,0 km/h (0 Bft)
07.07.2012 09:00 16,0 C 92 % 0,0 l/m 2,6 km/h (1 Bft) S-SO 157 14,7 C 17,7 C 4,2 km/h (1 Bft)
07.07.2012 09:05 15,9 C 93 % 0,0 l/m 2,4 km/h (1 Bft) S 180 14,8 C 17,8 C 3,7 km/h (1 Bft)
07.07.2012 09:10 15,9 C 93 % 0,0 l/m 2,3 km/h (1 Bft) S-SW 202 14,8 C 17,8 C 0,0 km/h (0 Bft)
07.07.2012 09:15 15,8 C 92 % 0,0 l/m 1,8 km/h (1 Bft) S 180 14,5 C 17,9 C 1,9 km/h (1 Bft)
07.07.2012 09:20 15,9 C 92 % 0,0 l/m 2,1 km/h (1 Bft) S-SO 157 14,6 C 17,8 C 3,4 km/h (1 Bft)
07.07.2012 09:25 16,1 C 90 % 0,0 l/m 3,1 km/h (1 Bft) S-SO 157 14,5 C 17,9 C 5,0 km/h (1 Bft)
07.07.2012 09:30 16,1 C 89 % 0,0 l/m 3,7 km/h (1 Bft) SO 135 14,3 C 17,9 C 3,9 km/h (1 Bft)
07.07.2012 09:35 15,9 C 89 % 0,0 l/m 4,3 km/h (1 Bft) S-SO 157 14,1 C 17,7 C 7,7 km/h (2 Bft)
07.07.2012 09:40 15,7 C 89 % 0,0 l/m 4,8 km/h (1 Bft) S 180 13,9 C 17,3 C 6,6 km/h (2 Bft)
07.07.2012 09:45 15,6 C 89 % 0,0 l/m 4,7 km/h (1 Bft) S 180 13,8 C 17,1 C 5,1 km/h (1 Bft)
07.07.2012 09:50 15,7 C 89 % 0,0 l/m 3,7 km/h (1 Bft) S-SO 157 13,9 C 16,9 C 3,4 km/h (1 Bft)
07.07.2012 09:55 16,1 C 88 % 0,0 l/m 3,7 km/h (1 Bft) S 180 14,1 C 17,1 C 5,8 km/h (2 Bft)
07.07.2012 10:00 16,3 C 88 % 0,0 l/m 3,2 km/h (1 Bft) S-SW 202 14,3 C 17,6 C 3,9 km/h (1 Bft)
07.07.2012 10:05 16,5 C 88 % 0,0 l/m 3,1 km/h (1 Bft) O-SO 112 14,5 C 17,9 C 1,8 km/h (1 Bft)
07.07.2012 10:10 16,5 C 88 % 0,0 l/m 2,1 km/h (1 Bft) O-SO 112 14,5 C 18,4 C 4,0 km/h (1 Bft)
07.07.2012 10:15 16,5 C 88 % 0,0 l/m 2,1 km/h (1 Bft) S-SO 157 14,5 C 18,4 C 5,0 km/h (1 Bft)
07.07.2012 10:20 16,4 C 88 % 0,0 l/m 2,9 km/h (1 Bft) S-SO 157 14,4 C 18,3 C 4,2 km/h (1 Bft)
07.07.2012 10:25 16,2 C 87 % 0,0 l/m 2,7 km/h (1 Bft) S 180 14,0 C 18,1 C 3,4 km/h (1 Bft)
07.07.2012 10:30 16,1 C 87 % 0,0 l/m 2,7 km/h (1 Bft) S 180 13,9 C 17,8 C 2,3 km/h (1 Bft)
07.07.2012 10:35 16,5 C 87 % 0,0 l/m 2,3 km/h (1 Bft) S 180 14,3 C 17,9 C 1,6 km/h (1 Bft)
07.07.2012 10:40 16,5 C 87 % 0,0 l/m 2,1 km/h (1 Bft) S 180 14,3 C 18,0 C 2,3 km/h (1 Bft)
07.07.2012 10:45 16,4 C 87 % 0,0 l/m 1,9 km/h (1 Bft) S 180 14,2 C 18,1 C 3,2 km/h (1 Bft)
07.07.2012 10:50 16,4 C 87 % 0,0 l/m 2,1 km/h (1 Bft) S 180 14,2 C 17,9 C 4,3 km/h (1 Bft)
07.07.2012 10:55 16,5 C 87 % 0,0 l/m 2,1 km/h (1 Bft) N-NW 337 14,3 C 17,9 C 0,0 km/h (0 Bft)
07.07.2012 11:00 16,5 C 87 % 0,0 l/m 1,0 km/h (0 Bft) SO 135 14,3 C 18,2 C 0,0 km/h (0 Bft)
07.07.2012 11:05 16,5 C 88 % 0,0 l/m 0,8 km/h (0 Bft) SO 135 14,5 C 18,3 C 3,5 km/h (1 Bft)
07.07.2012 11:10 16,3 C 87 % 0,0 l/m 1,8 km/h (1 Bft) S 180 14,1 C 17,9 C 2,6 km/h (1 Bft)
07.07.2012 11:15 16,1 C 87 % 0,0 l/m 2,6 km/h (1 Bft) S-SW 202 13,9 C 17,7 C 3,2 km/h (1 Bft)
07.07.2012 11:20 16,1 C 88 % 0,0 l/m 2,6 km/h (1 Bft) S 180 14,1 C 17,4 C 3,4 km/h (1 Bft)
07.07.2012 11:25 16,2 C 88 % 0,0 l/m 2,1 km/h (1 Bft) O-SO 112 14,2 C 17,4 C 0,0 km/h (0 Bft)
07.07.2012 11:30 16,4 C 88 % 0,0 l/m 1,4 km/h (1 Bft) S 180 14,4 C 17,6 C 4,5 km/h (1 Bft)
07.07.2012 11:35 16,3 C 87 % 0,0 l/m 2,1 km/h (1 Bft) SO 135 14,1 C 17,6 C 5,6 km/h (1 Bft)
07.07.2012 11:40 16,2 C 86 % 0,0 l/m 2,7 km/h (1 Bft) O-SO 112 13,9 C 17,6 C 1,6 km/h (1 Bft)
07.07.2012 11:45 16,4 C 87 % 0,0 l/m 2,7 km/h (1 Bft) SO 135 14,2 C 17,7 C 3,1 km/h (1 Bft)
07.07.2012 11:50 16,4 C 87 % 0,0 l/m 1,6 km/h (1 Bft) O-SO 112 14,2 C 17,8 C 0,0 km/h (0 Bft)
07.07.2012 11:55 16,1 C 87 % 0,0 l/m 0,5 km/h (0 Bft) O-SO 112 13,9 C 17,6 C 2,7 km/h (1 Bft)
07.07.2012 12:00 16,2 C 88 % 0,0 l/m 0,3 km/h (0 Bft) O 90 14,2 C 17,4 C 2,3 km/h (1 Bft)
07.07.2012 12:05 16,2 C 88 % 0,0 l/m 0,5 km/h (0 Bft) O 90 14,2 C 17,4 C 0,0 km/h (0 Bft)
07.07.2012 12:10 16,2 C 87 % 0,0 l/m 0,2 km/h (0 Bft) N-NO 22 14,0 C 17,6 C 0,0 km/h (0 Bft)
07.07.2012 12:15 16,3 C 88 % 0,0 l/m 0,0 km/h (0 Bft) N 360 14,3 C 17,7 C 0,0 km/h (0 Bft)
07.07.2012 12:20 16,3 C 87 % 0,0 l/m 0,0 km/h (0 Bft) N-NO 22 14,1 C 17,9 C 0,0 km/h (0 Bft)
07.07.2012 12:25 16,3 C 87 % 0,0 l/m 0,2 km/h (0 Bft) N 360 14,1 C 18,0 C 0,0 km/h (0 Bft)
07.07.2012 12:30 16,6 C 88 % 0,0 l/m 0,2 km/h (0 Bft) N-NO 22 14,6 C 18,2 C 0,0 km/h (0 Bft)
07.07.2012 12:35 16,9 C 87 % 0,0 l/m 0,0 km/h (0 Bft) N 360 14,7 C 18,7 C 0,0 km/h (0 Bft)
07.07.2012 12:40 17,4 C 79 % 0,0 l/m 0,3 km/h (0 Bft) N-NO 22 13,7 C 19,7 C 0,0 km/h (0 Bft)
07.07.2012 12:45 18,2 C 80 % 0,0 l/m 0,3 km/h (0 Bft) SW 225 14,7 C 20,7 C 0,0 km/h (0 Bft)
07.07.2012 12:50 19,9 C 82 % 0,0 l/m 0,5 km/h (0 Bft) SO 135 16,7 C 22,0 C 0,0 km/h (0 Bft)
07.07.2012 12:55 20,7 C 79 % 0,0 l/m 1,0 km/h (0 Bft) S-SW 202 16,9 C 23,4 C 2,9 km/h (1 Bft)
07.07.2012 13:00 21,9 C 73 % 0,0 l/m 1,6 km/h (1 Bft) O-SO 112 16,8 C 25,4 C 5,0 km/h (1 Bft)
07.07.2012 13:05 22,3 C 68 % 0,0 l/m 1,8 km/h (1 Bft) W 270 16,1 C 26,0 C 0,0 km/h (0 Bft)
07.07.2012 13:10 22,2 C 63 % 0,0 l/m 2,1 km/h (1 Bft) S 180 14,8 C 26,9 C 2,6 km/h (1 Bft)
07.07.2012 13:15 21,7 C 62 % 0,0 l/m 2,4 km/h (1 Bft) W-SW 247 14,1 C 26,8 C 5,0 km/h (1 Bft)
07.07.2012 13:20 21,2 C 61 % 0,0 l/m 3,4 km/h (1 Bft) W-SW 247 13,4 C 26,0 C 3,2 km/h (1 Bft)
07.07.2012 13:25 21,1 C 62 % 0,0 l/m 2,9 km/h (1 Bft) W-SW 247 13,5 C 25,8 C 4,7 km/h (1 Bft)
07.07.2012 13:30 21,7 C 59 % 0,0 l/m 3,4 km/h (1 Bft) W-SW 247 13,3 C 25,2 C 2,9 km/h (1 Bft)
07.07.2012 13:35 21,6 C 58 % 0,0 l/m 4,5 km/h (1 Bft) W-SW 247 13,0 C 24,9 C 6,4 km/h (2 Bft)
07.07.2012 13:40 21,5 C 56 % 0,0 l/m 4,7 km/h (1 Bft) W 270 12,3 C 24,5 C 5,5 km/h (1 Bft)
07.07.2012 13:45 21,0 C 59 % 0,0 l/m 4,3 km/h (1 Bft) W-SW 247 12,7 C 24,3 C 5,5 km/h (1 Bft)
07.07.2012 13:50 20,6 C 60 % 0,0 l/m 3,5 km/h (1 Bft) NW 315 12,6 C 23,3 C 3,5 km/h (1 Bft)
07.07.2012 13:55 20,7 C 62 % 0,0 l/m 2,4 km/h (1 Bft) SO 135 13,2 C 23,3 C 0,0 km/h (0 Bft)
07.07.2012 14:00 20,5 C 66 % 0,0 l/m 1,0 km/h (0 Bft) W-SW 247 13,9 C 23,4 C 2,4 km/h (1 Bft)
07.07.2012 14:05 20,3 C 64 % 0,0 l/m 1,1 km/h (1 Bft) S-SW 202 13,3 C 23,2 C 3,1 km/h (1 Bft)
07.07.2012 14:10 20,6 C 63 % 0,0 l/m 3,1 km/h (1 Bft) W-SW 247 13,3 C 22,7 C 5,5 km/h (1 Bft)
07.07.2012 14:15 20,4 C 62 % 0,0 l/m 3,4 km/h (1 Bft) S 180 12,9 C 22,5 C 0,0 km/h (0 Bft)
07.07.2012 14:20 21,5 C 58 % 0,0 l/m 3,1 km/h (1 Bft) S-SW 202 12,9 C 23,7 C 3,2 km/h (1 Bft)
07.07.2012 14:25 22,0 C 57 % 0,0 l/m 3,1 km/h (1 Bft) W 270 13,1 C 24,0 C 2,7 km/h (1 Bft)
07.07.2012 14:30 22,5 C 60 % 0,0 l/m 3,2 km/h (1 Bft) NW 315 14,3 C 24,3 C 4,0 km/h (1 Bft)
07.07.2012 14:35 22,8 C 57 % 0,0 l/m 4,0 km/h (1 Bft) W-SW 247 13,8 C 24,7 C 7,1 km/h (2 Bft)
07.07.2012 14:40 21,9 C 60 % 0,0 l/m 4,8 km/h (1 Bft) N-NO 22 13,8 C 23,8 C 3,2 km/h (1 Bft)
07.07.2012 14:45 22,9 C 57 % 0,0 l/m 4,5 km/h (1 Bft) W-NW 292 13,9 C 24,0 C 3,4 km/h (1 Bft)
07.07.2012 14:50 21,8 C 62 % 0,0 l/m 4,0 km/h (1 Bft) O-SO 112 14,2 C 23,8 C 3,1 km/h (1 Bft)
07.07.2012 14:55 21,4 C 62 % 0,0 l/m 4,2 km/h (1 Bft) W 270 13,8 C 23,5 C 4,8 km/h (1 Bft)
07.07.2012 15:00 21,8 C 59 % 0,0 l/m 4,7 km/h (1 Bft) W-NW 292 13,4 C 23,1 C 2,3 km/h (1 Bft)
07.07.2012 15:05 21,4 C 58 % 0,0 l/m 4,2 km/h (1 Bft) N 360 12,8 C 23,3 C 1,6 km/h (1 Bft)
07.07.2012 15:10 21,3 C 62 % 0,0 l/m 2,9 km/h (1 Bft) S 180 13,7 C 23,5 C 1,6 km/h (1 Bft)
07.07.2012 15:15 21,6 C 62 % 0,0 l/m 2,7 km/h (1 Bft) NW 315 14,0 C 23,3 C 3,5 km/h (1 Bft)
07.07.2012 15:20 22,1 C 58 % 0,0 l/m 3,2 km/h (1 Bft) W-SW 247 13,4 C 23,3 C 2,7 km/h (1 Bft)
07.07.2012 15:25 22,1 C 59 % 0,0 l/m 3,5 km/h (1 Bft) W-NW 292 13,7 C 23,9 C 6,1 km/h (2 Bft)
07.07.2012 15:30 22,7 C 56 % 0,0 l/m 4,2 km/h (1 Bft) W 270 13,5 C 24,3 C 2,7 km/h (1 Bft)
07.07.2012 15:35 22,7 C 55 % 0,0 l/m 4,7 km/h (1 Bft) W-NW 292 13,2 C 24,7 C 6,1 km/h (2 Bft)
07.07.2012 15:40 23,5 C 53 % 0,0 l/m 3,5 km/h (1 Bft) O-SO 112 13,4 C 26,1 C 3,9 km/h (1 Bft)
07.07.2012 15:45 22,8 C 54 % 0,0 l/m 3,1 km/h (1 Bft) NW 315 13,0 C 25,9 C 1,9 km/h (1 Bft)
07.07.2012 15:50 22,3 C 55 % 0,0 l/m 3,9 km/h (1 Bft) W-NW 292 12,8 C 25,0 C 3,4 km/h (1 Bft)
07.07.2012 15:55 23,6 C 52 % 0,0 l/m 3,2 km/h (1 Bft) W 270 13,2 C 25,2 C 3,7 km/h (1 Bft)
07.07.2012 16:00 23,7 C 50 % 0,0 l/m 2,7 km/h (1 Bft) N 360 12,6 C 26,0 C 2,1 km/h (1 Bft)
07.07.2012 16:05 23,9 C 50 % 0,0 l/m 2,9 km/h (1 Bft) S-SW 202 12,8 C 26,7 C 3,2 km/h (1 Bft)
07.07.2012 16:10 24,1 C 52 % 0,0 l/m 4,0 km/h (1 Bft) N-NW 337 13,6 C 27,0 C 12,2 km/h (2 Bft)
07.07.2012 16:15 23,5 C 53 % 0,0 l/m 4,7 km/h (1 Bft) N-NW 337 13,4 C 26,6 C 7,7 km/h (2 Bft)
07.07.2012 16:20 23,4 C 52 % 0,0 l/m 4,8 km/h (1 Bft) W-NW 292 13,0 C 26,3 C 5,3 km/h (1 Bft)
07.07.2012 16:25 23,2 C 53 % 0,0 l/m 5,6 km/h (1 Bft) W 270 13,1 C 25,9 C 7,1 km/h (2 Bft)
07.07.2012 16:30 22,9 C 54 % 0,0 l/m 4,8 km/h (1 Bft) NW 315 13,1 C 26,0 C 7,9 km/h (2 Bft)
07.07.2012 16:35 23,0 C 55 % 0,0 l/m 4,5 km/h (1 Bft) W 270 13,5 C 25,9 C 6,0 km/h (2 Bft)
07.07.2012 16:40 22,9 C 57 % 0,0 l/m 4,8 km/h (1 Bft) W-NW 292 13,9 C 26,0 C 6,4 km/h (2 Bft)
07.07.2012 16:45 23,1 C 55 % 0,0 l/m 4,7 km/h (1 Bft) NW 315 13,6 C 26,3 C 5,8 km/h (2 Bft)
07.07.2012 16:50 22,2 C 58 % 0,0 l/m 4,8 km/h (1 Bft) W-NW 292 13,5 C 25,9 C 5,1 km/h (1 Bft)
07.07.2012 16:55 22,1 C 58 % 0,0 l/m 4,8 km/h (1 Bft) W-NW 292 13,4 C 25,9 C 9,7 km/h (2 Bft)
07.07.2012 17:00 21,9 C 59 % 0,0 l/m 4,3 km/h (1 Bft) W-SW 247 13,5 C 25,7 C 5,6 km/h (1 Bft)
07.07.2012 17:05 21,9 C 56 % 0,0 l/m 4,5 km/h (1 Bft) S-SW 202 12,7 C 25,8 C 5,0 km/h (1 Bft)
07.07.2012 17:10 22,0 C 58 % 0,0 l/m 4,3 km/h (1 Bft) W 270 13,3 C 26,2 C 8,2 km/h (2 Bft)
07.07.2012 17:15 21,7 C 59 % 0,0 l/m 4,8 km/h (1 Bft) W-SW 247 13,3 C 26,0 C 6,8 km/h (2 Bft)
07.07.2012 17:20 21,8 C 62 % 0,0 l/m 4,8 km/h (1 Bft) N-NW 337 14,2 C 26,1 C 1,8 km/h (1 Bft)
07.07.2012 17:25 21,7 C 61 % 0,0 l/m 4,3 km/h (1 Bft) NO 45 13,8 C 26,4 C 4,3 km/h (1 Bft)
07.07.2012 17:30 21,5 C 61 % 0,0 l/m 3,9 km/h (1 Bft) S 180 13,7 C 26,5 C 5,3 km/h (1 Bft)
07.07.2012 17:35 21,4 C 60 % 0,0 l/m 4,0 km/h (1 Bft) W 270 13,3 C 26,4 C 4,3 km/h (1 Bft)
07.07.2012 17:40 21,5 C 60 % 0,0 l/m 4,7 km/h (1 Bft) N-NW 337 13,4 C 26,3 C 4,0 km/h (1 Bft)
07.07.2012 17:45 21,3 C 60 % 0,0 l/m 3,9 km/h (1 Bft) W-NW 292 13,2 C 26,5 C 6,1 km/h (2 Bft)
07.07.2012 17:50 21,3 C 59 % 0,0 l/m 3,9 km/h (1 Bft) W-NW 292 13,0 C 26,4 C 8,4 km/h (2 Bft)
07.07.2012 17:55 21,2 C 61 % 0,0 l/m 5,0 km/h (1 Bft) W-NW 292 13,4 C 26,1 C 4,7 km/h (1 Bft)
07.07.2012 18:00 21,3 C 62 % 0,0 l/m 4,8 km/h (1 Bft) W 270 13,7 C 25,9 C 6,8 km/h (2 Bft)
07.07.2012 18:05 21,2 C 59 % 0,0 l/m 4,3 km/h (1 Bft) W-NW 292 12,9 C 25,9 C 6,0 km/h (2 Bft)
07.07.2012 18:10 21,1 C 59 % 0,0 l/m 4,0 km/h (1 Bft) W-SW 247 12,8 C 26,1 C 7,6 km/h (2 Bft)
07.07.2012 18:15 21,2 C 58 % 0,0 l/m 4,3 km/h (1 Bft) SW 225 12,6 C 25,9 C 5,8 km/h (2 Bft)
07.07.2012 18:20 21,4 C 60 % 0,0 l/m 4,8 km/h (1 Bft) W-NW 292 13,3 C 25,8 C 5,3 km/h (1 Bft)
07.07.2012 18:25 21,4 C 58 % 0,0 l/m 4,3 km/h (1 Bft) SW 225 12,8 C 25,9 C 5,1 km/h (1 Bft)
07.07.2012 18:30 21,4 C 58 % 0,0 l/m 3,9 km/h (1 Bft) N-NW 337 12,8 C 26,0 C 6,3 km/h (2 Bft)
07.07.2012 18:35 21,4 C 58 % 0,0 l/m 3,4 km/h (1 Bft) W-SW 247 12,8 C 26,0 C 3,9 km/h (1 Bft)
07.07.2012 18:40 21,6 C 58 % 0,0 l/m 3,4 km/h (1 Bft) SW 225 13,0 C 26,1 C 5,0 km/h (1 Bft)
07.07.2012 18:45 21,4 C 58 % 0,0 l/m 3,7 km/h (1 Bft) W-SW 247 12,8 C 26,2 C 5,1 km/h (1 Bft)
07.07.2012 18:50 21,2 C 58 % 0,0 l/m 4,2 km/h (1 Bft) W 270 12,6 C 25,9 C 5,5 km/h (1 Bft)
07.07.2012 18:55 21,1 C 61 % 0,0 l/m 4,3 km/h (1 Bft) N 360 13,3 C 25,7 C 3,1 km/h (1 Bft)
07.07.2012 19:00 21,0 C 61 % 0,0 l/m 2,1 km/h (1 Bft) N-NW 337 13,2 C 26,1 C 0,0 km/h (0 Bft)
07.07.2012 19:05 20,8 C 62 % 0,0 l/m 1,0 km/h (0 Bft) N-NO 22 13,2 C 26,6 C 0,0 km/h (0 Bft)
07.07.2012 19:10 20,8 C 61 % 0,0 l/m 1,3 km/h (1 Bft) W-NW 292 13,0 C 26,7 C 4,7 km/h (1 Bft)
07.07.2012 19:15 20,8 C 62 % 0,0 l/m 2,3 km/h (1 Bft) W-NW 292 13,2 C 26,5 C 4,0 km/h (1 Bft)
07.07.2012 19:20 20,8 C 59 % 0,0 l/m 2,9 km/h (1 Bft) NW 315 12,5 C 26,1 C 4,8 km/h (1 Bft)
07.07.2012 19:25 20,7 C 59 % 0,0 l/m 3,4 km/h (1 Bft) W 270 12,4 C 25,8 C 6,4 km/h (2 Bft)
07.07.2012 19:30 20,5 C 60 % 0,0 l/m 2,9 km/h (1 Bft) N 360 12,5 C 25,5 C 1,6 km/h (1 Bft)
07.07.2012 19:35 20,4 C 61 % 0,0 l/m 2,7 km/h (1 Bft) N-NW 337 12,6 C 25,5 C 4,0 km/h (1 Bft)
07.07.2012 19:40 20,4 C 61 % 0,0 l/m 2,9 km/h (1 Bft) O-SO 112 12,6 C 25,1 C 0,0 km/h (0 Bft)
07.07.2012 19:45 20,4 C 60 % 0,0 l/m 3,1 km/h (1 Bft) W 270 12,4 C 25,0 C 2,7 km/h (1 Bft)
07.07.2012 19:50 20,3 C 60 % 0,0 l/m 2,3 km/h (1 Bft) O 90 12,3 C 24,9 C 0,0 km/h (0 Bft)
07.07.2012 19:55 20,2 C 62 % 0,0 l/m 1,4 km/h (1 Bft) W 270 12,7 C 25,0 C 3,9 km/h (1 Bft)
07.07.2012 20:00 20,0 C 62 % 0,0 l/m 0,3 km/h (0 Bft) W-SW 247 12,5 C 25,1 C 0,0 km/h (0 Bft)
07.07.2012 20:05 19,8 C 63 % 0,0 l/m 0,5 km/h (0 Bft) O 90 12,5 C 25,2 C 1,9 km/h (1 Bft)
07.07.2012 20:10 19,5 C 64 % 0,0 l/m 0,3 km/h (0 Bft) N-NO 22 12,5 C 25,0 C 0,0 km/h (0 Bft)
07.07.2012 20:15 19,5 C 64 % 0,0 l/m 0,3 km/h (0 Bft) NW 315 12,5 C 24,8 C 2,1 km/h (1 Bft)
07.07.2012 20:20 19,4 C 64 % 0,0 l/m 0,3 km/h (0 Bft) N 360 12,4 C 24,3 C 0,0 km/h (0 Bft)
07.07.2012 20:25 19,3 C 64 % 0,0 l/m 0,3 km/h (0 Bft) NO 45 12,3 C 24,0 C 0,0 km/h (0 Bft)
07.07.2012 20:30 18,8 C 66 % 0,0 l/m 0,3 km/h (0 Bft) N 360 12,3 C 23,5 C 1,9 km/h (1 Bft)
07.07.2012 20:35 18,7 C 67 % 0,0 l/m 0,6 km/h (0 Bft) N 360 12,4 C 23,0 C 1,8 km/h (1 Bft)
07.07.2012 20:40 18,5 C 67 % 0,0 l/m 0,6 km/h (0 Bft) N 360 12,3 C 22,3 C 0,0 km/h (0 Bft)
07.07.2012 20:45 18,1 C 68 % 0,0 l/m 0,3 km/h (0 Bft) NO 45 12,1 C 21,8 C 0,0 km/h (0 Bft)
07.07.2012 20:50 17,7 C 69 % 0,0 l/m 0,0 km/h (0 Bft) N-NO 22 11,9 C 21,1 C 0,0 km/h (0 Bft)
07.07.2012 20:55 17,5 C 70 % 0,0 l/m 0,0 km/h (0 Bft) N 360 12,0 C 20,6 C 0,0 km/h (0 Bft)
07.07.2012 21:00 17,2 C 70 % 0,0 l/m 0,0 km/h (0 Bft) N-NO 22 11,7 C 19,8 C 0,0 km/h (0 Bft)
07.07.2012 21:05 17,0 C 71 % 0,0 l/m 0,2 km/h (0 Bft) N-NO 22 11,7 C 19,2 C 0,0 km/h (0 Bft)
07.07.2012 21:10 16,7 C 72 % 0,0 l/m 0,2 km/h (0 Bft) N 360 11,6 C 18,3 C 0,0 km/h (0 Bft)
07.07.2012 21:15 16,3 C 73 % 0,0 l/m 0,0 km/h (0 Bft) O-NO 67 11,4 C 17,6 C 0,0 km/h (0 Bft)
07.07.2012 21:20 15,7 C 76 % 0,0 l/m 0,0 km/h (0 Bft) O 90 11,5 C 16,4 C 0,0 km/h (0 Bft)
07.07.2012 21:25 15,5 C 76 % 0,0 l/m 0,0 km/h (0 Bft) N-NO 22 11,3 C 15,9 C 0,0 km/h (0 Bft)
07.07.2012 21:30 15,5 C 73 % 0,0 l/m 0,2 km/h (0 Bft) N 360 10,7 C 15,4 C 0,0 km/h (0 Bft)
07.07.2012 21:35 15,2 C 74 % 0,0 l/m 0,3 km/h (0 Bft) NO 45 10,6 C 15,2 C 0,0 km/h (0 Bft)
07.07.2012 21:40 14,7 C 75 % 0,0 l/m 0,3 km/h (0 Bft) N-NO 22 10,3 C 14,7 C 0,0 km/h (0 Bft)
07.07.2012 21:45 14,6 C 75 % 0,0 l/m 0,3 km/h (0 Bft) N-NO 22 10,2 C 14,4 C 0,0 km/h (0 Bft)
07.07.2012 21:50 14,5 C 74 % 0,0 l/m 0,5 km/h (0 Bft) NO 45 9,9 C 14,1 C 0,0 km/h (0 Bft)
07.07.2012 21:55 14,3 C 75 % 0,0 l/m 0,5 km/h (0 Bft) N 360 9,9 C 13,9 C 0,0 km/h (0 Bft)
07.07.2012 22:00 14,0 C 75 % 0,0 l/m 0,6 km/h (0 Bft) N-NO 22 9,6 C 13,7 C 1,8 km/h (1 Bft)
07.07.2012 22:05 14,2 C 75 % 0,0 l/m 0,6 km/h (0 Bft) N 360 9,8 C 13,7 C 0,0 km/h (0 Bft)
07.07.2012 22:10 14,2 C 75 % 0,0 l/m 0,3 km/h (0 Bft) N-NO 22 9,8 C 13,7 C 0,0 km/h (0 Bft)
07.07.2012 22:15 14,2 C 75 % 0,0 l/m 0,2 km/h (0 Bft) N-NO 22 9,8 C 13,6 C 0,0 km/h (0 Bft)
07.07.2012 22:20 14,0 C 76 % 0,0 l/m 0,3 km/h (0 Bft) S-SO 157 9,8 C 13,5 C 0,0 km/h (0 Bft)
07.07.2012 22:25 13,5 C 76 % 0,0 l/m 0,2 km/h (0 Bft) NO 45 9,4 C 13,3 C 1,6 km/h (1 Bft)
07.07.2012 22:30 13,2 C 78 % 0,0 l/m 0,0 km/h (0 Bft) N-NO 22 9,4 C 13,0 C 0,0 km/h (0 Bft)
07.07.2012 22:35 13,0 C 78 % 0,0 l/m 0,0 km/h (0 Bft) N-NO 22 9,3 C 12,9 C 0,0 km/h (0 Bft)
07.07.2012 22:40 12,7 C 79 % 0,0 l/m 0,0 km/h (0 Bft) NO 45 9,2 C 12,6 C 0,0 km/h (0 Bft)
07.07.2012 22:45 12,8 C 79 % 0,0 l/m 0,0 km/h (0 Bft) N-NO 22 9,2 C 12,4 C 0,0 km/h (0 Bft)
07.07.2012 22:50 12,5 C 79 % 0,0 l/m 0,0 km/h (0 Bft) W-SW 247 9,0 C 12,2 C 0,0 km/h (0 Bft)
07.07.2012 22:55 12,4 C 80 % 0,0 l/m 0,0 km/h (0 Bft) NO 45 9,0 C 12,0 C 0,0 km/h (0 Bft)
07.07.2012 23:00 12,4 C 81 % 0,0 l/m 0,0 km/h (0 Bft) S-SO 157 9,2 C 12,0 C 0,0 km/h (0 Bft)
07.07.2012 23:05 12,4 C 82 % 0,0 l/m 0,0 km/h (0 Bft) N-NO 22 9,4 C 11,9 C 1,6 km/h (1 Bft)
07.07.2012 23:10 12,5 C 82 % 0,0 l/m 0,0 km/h (0 Bft) SO 135 9,5 C 11,9 C 0,0 km/h (0 Bft)
07.07.2012 23:15 12,5 C 83 % 0,0 l/m 0,2 km/h (0 Bft) S-SO 157 9,7 C 12,1 C 0,0 km/h (0 Bft)
07.07.2012 23:20 12,4 C 83 % 0,0 l/m 0,2 km/h (0 Bft) S-SW 202 9,6 C 12,2 C 0,0 km/h (0 Bft)
07.07.2012 23:25 12,4 C 83 % 0,0 l/m 0,0 km/h (0 Bft) S-SO 157 9,6 C 12,2 C 1,6 km/h (1 Bft)
07.07.2012 23:30 12,4 C 83 % 0,0 l/m 0,3 km/h (0 Bft) O-SO 112 9,6 C 12,3 C 0,0 km/h (0 Bft)
07.07.2012 23:35 12,5 C 84 % 0,0 l/m 0,3 km/h (0 Bft) S-SO 157 9,9 C 12,4 C 0,0 km/h (0 Bft)
07.07.2012 23:40 12,3 C 84 % 0,0 l/m 0,0 km/h (0 Bft) O 90 9,7 C 12,3 C 0,0 km/h (0 Bft)
07.07.2012 23:45 12,4 C 84 % 0,0 l/m 0,0 km/h (0 Bft) O-SO 112 9,8 C 12,3 C 0,0 km/h (0 Bft)
07.07.2012 23:50 12,6 C 85 % 0,0 l/m 0,0 km/h (0 Bft) SW 225 10,1 C 12,3 C 0,0 km/h (0 Bft)
07.07.2012 23:55 12,5 C 85 % 0,0 l/m 0,0 km/h (0 Bft) SW 225 10,0 C 12,4 C 0,0 km/h (0 Bft)
_ Min-Zeit 23:40 16:05 - 23:55 - - 22:50 23:10 23:55
Minimum _ 12,3 C 50 % - 0,0 km/h (0 Bft) - - 9,0 C 11,9 C 0,0 km/h (0 Bft)
_ Max-Zeit 16:10 06:15 04:50 06:35 - - 12:55 16:10 16:10
Maximum _ 24,1 C 95 % 0,7 l/m 6,0 km/h
O-SO (2 Bft)
- - 16,9 C 27,0 C 12,2 km/h
N-NW (2 Bft)
Durchschnitt _ 16,9 C 80 % #2,7 l/m 1,7 km/h (1 Bft) S - 13,0 C 18,4 C 2,3 km/h (1 Bft)